COSMOS 2251 DEB, 35993

Orbit data source: Space-Track

COSMOS 2251 DEB, 35993 is space debris in LEO originally from a launch on Wed, 16 Jun 1993 UTC launched from the Plesetsk Missile And Space Complex (PKMTR). The debris from Iridium 33, an American commercial communications satellite, has been tracked extensively since its accidental collision with the defunct Russian satellite Cosmos 2251 in 2009. This event, occurring at high speed in low Earth orbit (LEO), generated thousands of pieces of space debris, significantly increasing the risk of further collisions. The Iridium 33 debris cloud has impacted space traffic management and orbital debris mitigation strategies, making it a subject of ongoing study in space situational awareness.

Loading next visibility...
Identifier
35993, 1993-036AWK
Orbit
LEO
Country
Flag of CISCIS
Related business
Manufacturer
Unknown
Mission
Spacecraft
Bus & Motor
Unknown
Mass
Unknown
Launch date (UTC)
1993-06-16 (33 years ago)
Launch vehicle
Unknown
Launch site
Plesetsk Missile And Space Complex (PKMTR)
Object type
Payload
Rocket body
Debris
Shape & HBR
Unknown shape, 0.1 m
Radar Cross Section
Small (<0.1 m²)

Expand to show TLE details & history
Last TLE update: 23 hours ago

TLE from 23 hours ago
0 COSMOS 2251 DEB
1 35993U 93036AWK 26175.08360565  .00002884  00000-0  52009-3 0  9995
2 35993  74.0137 319.7540 0029510  95.8759 264.5775 14.66716781632769
Epoch: 2026-06-24T02:00Z
TLE epoch observation values (Epoch: 2026-06-24T02:00:23.528Z)
Latitude
-0.00003°
Longitude
17.41005°
Altitude
676.243 km
Speed
7.518 km/s
True Right ascension
21h 19m 00s
True Declination
0° 00' 00"
Sunlit
Object was in full shadow at epoch
Visualization orbit readout
Latitude
Unknown
Longitude
Unknown
Altitude
Unknown
Speed
Unknown
Apparent Right ascension
Unknown
Apparent Declination
Unknown
Sunlit
N/A
Visualization observer readout
Local Sidereal Time
12:01:40
Azimuth
Unknown
Elevation
Unknown
Doppler factor
Unknown
Orbital elements
Apogee altitude
689.958 km
Perigee altitude
648.364 km
Semi-major axis
7,047.298 km
Eccentricity
0.00295
Inclination
74.0137°
RAAN
319.754°
Arg. of periapsis
95.8759°
True anomaly
264.24097°
Mean anomaly
264.5775°
Eccentric anomaly
264.40922°
Mean motion
3.66867 °/min
Orbital period
98.13 mins
BSTAR
0.00052009

Documentation

Showing up to 5 results
|